Date String (YYYY-MM-DD hh:mm:ss) UTC,Instrument flags,absolute air pressure of the measurement (hPa),sample flow rate (lpm),inlet stack bypass flow (lpm),air temperature of the measurement (°C),ambient temperature measured by the external sensor (°C),aerosol sample conditioner tube jacket temperature (°C),OPC LED temperature (°C),internal box temperature (°C),relative humidity of the measurement (%),span deviation,mass concentration of particles derived from Lorenz-Mie calculation of OPC scattering (μg/m³),mass concentration of particles derived from Lorenz-Mie calculation of OPC scattering (μg/m³),mass concentration of particles derived from Lorenz-Mie calculation of OPC scattering (μg/m³)
DateTimeUTC,F1_M11,P_M11,Q1_M11,Q2_M11,T1_M11,T2_M11,T3_M11,T4_M11,T5_M11,U1_M11,ZSPAN_M11,X0_M11,X2_M11,X1_M11
2023-08-05 08:00:00,SystemResetWarning,0834.3,5.00,000.00,029.6,025.4,000.0,037.9,030.9,24.4,0000.0,0007.66,0004.13,0003.63
2023-08-05 08:01:00,SystemResetWarning,0834.4,5.00,000.00,029.5,025.2,000.0,037.9,030.6,24.7,0000.0,0007.67,0004.11,0003.60
2023-08-05 08:02:00,SystemResetWarning,0834.3,5.01,000.00,029.3,025.5,000.0,037.9,030.5,25.1,0000.0,0007.53,0004.08,0003.59
2023-08-05 08:03:00,SystemResetWarning,0834.3,5.00,000.00,029.3,025.9,000.0,037.9,030.6,25.3,0000.0,0007.47,0004.04,0003.58
2023-08-05 08:04:00,SystemResetWarning,0834.4,5.00,000.00,029.3,026.3,000.0,038.0,030.7,25.2,0000.0,0007.34,0004.01,0003.56
2023-08-05 08:05:00,SystemResetWarning,0834.4,5.00,000.00,029.3,026.7,000.0,038.0,030.8,25.3,0000.0,0007.45,0004.01,0003.54
2023-08-05 08:06:00,SystemResetWarning,0834.3,4.99,000.00,029.3,027.0,000.0,038.0,030.8,25.5,0000.0,0007.50,0004.02,0003.53
2023-08-05 08:07:00,SystemResetWarning,0834.3,4.99,000.00,029.3,027.2,000.0,038.0,030.9,25.1,0000.0,0007.56,0004.03,0003.52
2023-08-05 08:08:00,SystemResetWarning,0834.3,5.00,000.00,029.3,027.4,000.0,038.0,030.9,25.0,0000.0,0007.49,0004.04,0003.51
2023-08-05 08:09:00,SystemResetWarning,0834.3,5.01,000.00,029.3,027.6,000.0,038.0,030.9,25.0,0000.0,0007.53,0004.06,0003.51
2023-08-05 08:10:00,SystemResetWarning,0834.3,5.00,000.00,029.3,027.7,000.0,038.0,031.0,25.0,0000.0,0007.42,0004.04,0003.51
2023-08-05 08:11:00,SystemResetWarning,0834.3,5.00,000.00,029.4,027.9,000.0,038.0,031.0,25.0,0000.0,0007.38,0004.03,0003.50
2023-08-05 08:12:00,SystemResetWarning,0834.3,5.00,000.00,029.4,028.0,000.0,038.0,031.0,25.0,0000.0,0007.31,0004.01,0003.50
2023-08-05 08:13:00,SystemResetWarning,0834.3,4.99,000.00,029.4,028.0,000.0,038.0,031.1,24.9,0000.0,0007.69,0004.01,0003.49
2023-08-05 08:14:00,SystemResetWarning,0834.4,4.99,000.00,029.4,028.1,000.0,038.0,031.1,24.9,0000.0,0007.78,0004.02,0003.49
2023-08-05 08:15:00,SystemResetWarning,0834.3,5.00,000.00,029.5,028.2,000.0,038.0,031.1,24.8,0000.0,0007.77,0004.02,0003.50
2023-08-05 08:16:00,SystemResetWarning,0834.3,5.01,000.00,029.5,028.2,000.0,038.0,031.1,24.8,0000.0,0007.82,0004.01,0003.50
2023-08-05 08:17:00,SystemResetWarning,0834.4,5.00,000.00,029.5,028.3,000.0,038.1,031.2,24.8,0000.0,0007.97,0004.01,0003.50
2023-08-05 08:18:00,SystemResetWarning,0834.4,5.01,000.00,029.5,028.3,000.0,038.1,031.2,24.7,0000.0,0008.61,0004.00,0003.51
2023-08-05 08:19:00,SystemResetWarning,0834.4,5.00,000.00,029.6,028.4,000.0,038.1,031.2,24.7,0000.0,0009.25,0004.03,0003.52
2023-08-05 08:20:00,SystemResetWarning,0834.4,4.99,000.00,029.6,028.4,000.0,038.1,031.2,24.7,0000.0,0009.72,0004.02,0003.51
2023-08-05 08:21:00,SystemResetWarning,0834.4,4.99,000.00,029.6,028.4,000.0,038.1,031.3,24.7,0000.0,0010.33,0004.02,0003.50
2023-08-05 08:22:00,SystemResetWarning,0834.3,5.00,000.00,029.6,028.5,000.0,038.2,031.3,24.6,0000.0,0010.43,0004.04,0003.51
2023-08-05 08:23:00,SystemResetWarning,0834.3,5.01,000.00,029.7,028.5,000.0,038.2,031.3,24.6,0000.0,0010.59,0004.10,0003.53
2023-08-05 08:24:00,SystemResetWarning,0834.3,5.01,000.00,029.7,028.5,000.0,038.2,031.3,24.7,0000.0,0010.28,0004.15,0003.55
2023-08-05 08:25:00,SystemResetWarning,0834.3,4.98,000.00,029.7,027.0,000.0,038.1,031.2,24.5,0000.0,0010.20,0004.17,0003.57
2023-08-05 08:26:00,SystemResetWarning,0834.4,5.00,000.00,029.6,025.4,000.0,038.0,030.9,24.6,0000.0,0010.33,0004.23,0003.59
2023-08-05 08:27:00,SystemResetWarning,0834.5,5.02,000.00,029.5,025.2,000.0,037.9,030.6,24.7,0000.0,0010.28,0004.27,0003.62
2023-08-05 08:28:00,SystemResetWarning,0834.3,4.99,000.00,029.4,025.4,000.0,037.9,030.5,25.0,0000.0,0010.23,0004.32,0003.63
2023-08-05 08:29:00,SystemResetWarning,0834.4,5.00,000.00,029.3,025.8,000.0,038.0,030.6,25.2,0000.0,0009.82,0004.37,0003.64
2023-08-05 08:30:00,SystemResetWarning,0834.4,5.00,000.00,029.3,026.3,000.0,038.0,030.7,25.2,0000.0,0009.16,0004.33,0003.65
2023-08-05 08:31:00,SystemResetWarning,0834.2,4.99,000.00,029.3,026.6,000.0,038.0,030.8,25.3,0000.0,0009.19,0004.39,0003.66
2023-08-05 08:32:00,SystemResetWarning,0834.3,5.00,000.00,029.3,026.9,000.0,038.0,030.8,25.4,0000.0,0009.04,0004.40,0003.68
2023-08-05 08:33:00,SystemResetWarning,0834.2,5.00,000.00,029.3,027.2,000.0,038.0,030.9,26.2,0000.0,0009.96,0004.43,0003.70
2023-08-05 08:34:00,SystemResetWarning,0834.2,5.00,000.00,029.3,027.4,000.0,038.0,030.9,26.4,0000.0,0010.05,0004.41,0003.69
2023-08-05 08:35:00,SystemResetWarning,0834.2,5.00,000.00,029.3,027.5,000.0,038.0,030.9,26.1,0000.0,0010.73,0004.37,0003.68
2023-08-05 08:36:00,SystemResetWarning,0834.2,5.00,000.00,029.3,027.7,000.0,038.0,031.0,25.4,0000.0,0010.91,0004.36,0003.67
2023-08-05 08:37:00,SystemResetWarning,0834.2,5.00,000.00,029.4,027.8,000.0,038.0,031.0,25.4,0000.0,0010.90,0004.33,0003.65
2023-08-05 08:38:00,SystemResetWarning,0834.1,5.00,000.00,029.4,027.9,000.0,038.0,031.0,25.5,0000.0,0010.86,0004.31,0003.64
2023-08-05 08:39:00,SystemResetWarning,0834.1,5.00,000.00,029.4,028.0,000.0,038.0,031.1,25.8,0000.0,0010.71,0004.27,0003.62
2023-08-05 08:40:00,SystemResetWarning,0834.1,5.00,000.00,029.4,028.1,000.0,038.0,031.1,26.3,0000.0,0010.74,0004.24,0003.62
2023-08-05 08:41:00,SystemResetWarning,0834.1,5.01,000.00,029.4,028.1,000.0,038.0,031.1,26.8,0000.0,0010.79,0004.24,0003.62
2023-08-05 08:42:00,SystemResetWarning,0834.1,5.00,000.00,029.5,028.2,000.0,038.0,031.1,27.1,0000.0,0010.39,0004.21,0003.62
2023-08-05 08:43:00,SystemResetWarning,0834.1,5.00,000.00,029.5,028.3,000.0,038.0,031.2,26.7,0000.0,0009.77,0004.19,0003.61
2023-08-05 08:44:00,SystemResetWarning,0834.1,4.99,000.00,029.5,028.3,000.0,038.1,031.2,26.6,0000.0,0008.58,0004.12,0003.60
2023-08-05 08:45:00,SystemResetWarning,0834.1,4.99,000.00,029.5,028.4,000.0,038.1,031.2,26.0,0000.0,0008.35,0004.08,0003.59
2023-08-05 08:46:00,SystemResetWarning,0834.1,5.00,000.00,029.6,028.4,000.0,038.1,031.2,26.1,0000.0,0007.57,0004.05,0003.60
2023-08-05 08:47:00,SystemResetWarning,0834.1,5.00,000.00,029.6,028.4,000.0,038.1,031.2,26.1,0000.0,0007.39,0004.07,0003.60
2023-08-05 08:48:00,SystemResetWarning,0834.1,5.01,000.00,029.6,028.4,000.0,038.1,031.3,25.9,0000.0,0007.62,0004.06,0003.60
2023-08-05 08:49:00,SystemResetWarning,0834.1,5.00,000.00,029.6,028.4,000.0,038.2,031.3,25.4,0000.0,0007.65,0004.02,0003.60
2023-08-05 08:50:00,SystemResetWarning,0834.1,5.00,000.00,029.7,028.5,000.0,038.2,031.3,25.3,0000.0,0007.82,0004.07,0003.61
2023-08-05 08:51:00,SystemResetWarning,0834.0,5.00,000.00,029.7,028.5,000.0,038.2,031.3,25.3,0000.0,0008.00,0004.06,0003.62
2023-08-05 08:52:00,SystemResetWarning,0834.0,4.99,000.00,029.7,028.5,000.0,038.2,031.3,25.3,0000.0,0007.69,0004.06,0003.62
2023-08-05 08:53:00,SystemResetWarning,0834.0,4.99,000.00,029.7,028.6,000.0,038.3,031.4,25.2,0000.0,0007.73,0004.08,0003.64
2023-08-05 08:54:00,SystemResetWarning,0834.0,4.99,000.00,029.7,028.5,000.0,038.3,031.4,25.2,0000.0,0007.81,0004.10,0003.64
2023-08-05 08:55:00,SystemResetWarning,0834.0,5.00,000.00,029.7,026.8,000.0,038.1,031.2,25.1,0000.0,0008.33,0004.15,0003.68
2023-08-05 08:56:00,SystemResetWarning,0834.0,5.00,000.00,029.7,025.4,000.0,038.0,030.9,25.1,0000.0,0008.46,0004.21,0003.71
2023-08-05 08:57:00,SystemResetWarning,0834.0,5.00,000.00,029.5,025.2,000.0,038.0,030.6,25.3,0000.0,0008.76,0004.23,0003.73
2023-08-05 08:58:00,SystemResetWarning,0834.0,5.01,000.00,029.4,025.5,000.0,038.0,030.5,25.6,0000.0,0008.93,0004.23,0003.74
2023-08-05 08:59:00,SystemResetWarning,0834.0,4.99,000.00,029.4,025.9,000.0,038.0,030.6,25.7,0000.0,0009.10,0004.22,0003.76
